Dewpoint
-3 -3 -4 -5 -3 -7 -5 -4 -2 -3 -5 -4 -4 -4 -5 -6 -6 -5 -3 -3 -4 -5 -6 -7 -7 -8 -8 -8 -7 -6 -5 -4 -3 -2 -1 2 6 8 9 8 8 8 8 9
-2 -2 -5 -5 -4 -4 -3 -2 -2 -3 -4 -4 -3 -3 -5 -5 -4 -4 -3 -3 -4 -5 -6 -6 -6 -7 -7 -7 -8 -7 -7 -5 -4 -2 -0 1 3 5 7 7 7 7 7 7
-1 -2 -3 -3 -2 -2 -2 -1 -2 -2 -3 -4 -3 -2 -3 -3 -2 -2 -2 -3 -4 -6 -7 -7 -7 -6 -6 -6 -6 -6 -6 -7 -7 -6 -3 -1 2 4 5 6 6 5 5 6
-2 -3 -2 -2 -1 -1 1 -2 -2 -1 -2 0 -3 1 -1 -3 -2 -2 -2 -3 -5 -6 -6 -6 -6 -6 -6 -7 -6 -6 -6 -6 -6 -6 -6 -7 -6 -4 -2 -1 -0 1 1 2
0 -1 -2 -1 -1 -2 -1 -4 -4 -4 -3 -2 -2 -1 -1 -2 -1 -2 -3 -3 -4 -5 -6 -6 -7 -8 -9 -9 -10 -10 -11 -11 -9 -8 -6 -6 -6 -6 -5 -4 -3 -4 -4 -3
-2 -5 -4 -4 -4 -4 -4 -5 -2 -1 -1 2 -0 -1 1 -2 -2 -1 -3 -3 -4 -4 -5 -7 -7 -8 -9 -9 -9 -9 -10 -11 -12 -12 -11 -10 -7 -6 -6 -6 -6 -6 -6 -5
-2 -2 -4 -5 -4 -4 -5 -1 3 3 3 4 1 2 1 -1 -2 -2 -3 -3 -4 -5 -5 -7 -7 -8 -9 -9 -11 -12 -12 -12 -13 -13 -13 -12 -12 -11 -10 -9 -9 -9 -9 -9
3 3 -2 -4 -4 -2 -2 0 3 3 4 2 0 2 -0 -3 -3 -3 -3 -3 -4 -4 -5 -6 -7 -7 -7 -9 -13 -16 -18 -19 -19 -19 -20 -22 -23 -24 -25 -26 -26 -25 -26 -27
2 3 -3 -4 -4 -3 -1 2 -0 3 -2 2 2 1 -1 -3 -4 -4 -4 -5 -5 -5 -6 -6 -6 -5 -7 -11 -16 -19 -21 -23 -25 -26 -28 -29 -30 -31 -31 -32 -32 -32 -32 -33
1 3 -0 -2 -3 -2 -1 -0 3 3 3 4 2 2 2 -1 -3 -4 -5 -5 -5 -6 -6 -5 -4 -6 -7 -13 -19 -23 -25 -26 -27 -28 -28 -28 -28 -29 -29 -29 -30 -30 -31 -31
0 2 2 -1 1 1 -0 1 1 2 2 2 2 -0 -3 -1 -3 -4 -5 -5 -5 -5 -6 -5 -5 -6 -10 -15 -20 -24 -25 -25 -26 -26 -26 -26 -27 -26 -26 -26 -26 -27 -28 -28
1 2 3 2 -1 -2 -2 -0 0 2 2 2 2 1 -3 -2 -4 -5 -5 -5 -5 -6 -7 -6 -6 -8 -14 -17 -20 -23 -23 -23 -23 -22 -22 -21 -21 -21 -21 -22 -23 -24 -25 -26
2 3 0 0 -2 0 1 2 1 2 2 1 3 1 -3 -4 -4 -5 -5 -5 -6 -6 -7 -7 -8 -12 -13 -14 -17 -18 -20 -21 -21 -20 -19 -18 -19 -19 -20 -21 -22 -23 -24 -25
1 2 1 2 -4 -0 -1 -1 -2 -1 0 -0 1 -1 -4 -4 -3 -4 -4 -4 -5 -5 -6 -6 -11 -12 -13 -14 -17 -20 -20 -19 -18 -17 -17 -17 -17 -18 -19 -21 -23 -24 -26 -27
1 4 1 0 0 -0 0 -0 -1 -0 -2 -1 -7 -6 -8 -7 -7 -8 -9 -9 -7 -3 -3 -8 -11 -13 -14 -16 -20 -19 -18 -17 -16 -15 -15 -15 -15 -16 -18 -21 -23 -25 -26 -27
-2 -1 -0 -2 -3 -1 -1 -2 -2 -2 -2 -2 -3 -3 -7 -9 -10 -10 -11 -11 -9 -4 -5 -7 -8 -13 -16 -18 -16 -16 -16 -15 -13 -13 -13 -13 -14 -16 -20 -21 -23 -24 -27 -30
-1 -2 -3 -2 -5 -6 -7 -7 -6 -8 -7 -8 -9 -9 -8 -8 -9 -10 -10 -13 -14 -14 -15 -14 -12 -16 -18 -17 -16 -15 -14 -13 -12 -12 -13 -13 -15 -20 -21 -22 -26 -29 -29 -26
-3 -3 -4 -6 -9 -8 -11 -13 -12 -10 -10 -8 -6 -8 -8 -8 -9 -10 -12 -14 -15 -16 -15 -14 -14 -14 -15 -16 -15 -14 -13 -12 -12 -12 -13 -15 -20 -21 -24 -28 -27 -24 -19 -18
-5 -5 -6 -6 -8 -9 -12 -12 -11 -10 -10 -10 -8 -9 -10 -10 -14 -15 -16 -17 -16 -16 -16 -15 -16 -15 -16 -16 -14 -13 -12 -12 -12 -13 -15 -20 -22 -25 -27 -26 -21 -18 -19 -20
-5 -6 -7 -10 -8 -8 -11 -12 -13 -13 -10 -12 -11 -12 -8 -13 -11 -14 -15 -15 -15 -15 -15 -15 -15 -14 -14 -14 -13 -12 -11 -13 -13 -15 -20 -22 -25 -27 -25 -19 -19 -20 -20 -21
-8 -7 -3 -6 -8 -9 -10 -11 -13 -11 -12 -15 -15 -15 -11 -11 -13 -14 -14 -15 -14 -14 -14 -14 -13 -13 -13 -12 -12 -12 -13 -13 -14 -20 -21 -24 -26 -24 -19 -19 -20 -20 -21 -22
-8 -7 -7 -9 -7 -6 -11 -10 -10 -12 -13 -16 -15 -14 -11 -13 -14 -14 -15 -13 -13 -13 -13 -13 -13 -13 -12 -12 -12 -12 -13 -14 -19 -21 -23 -25 -23 -19 -19 -19 -20 -21 -22 -22
-11 -10 -10 -8 -9 -11 -11 -12 -13 -14 -18 -16 -15 -14 -14 -15 -15 -14 -13 -13 -16 -14 -13 -13 -12 -12 -12 -12 -12 -13 -13 -17 -20 -22 -24 -24 -21 -19 -19 -20 -20 -21 -22 -22
-11 -13 -10 -12 -13 -12 -13 -13 -16 -15 -15 -16 -15 -15 -14 -14 -14 -14 -14 -15 -14 -14 -13 -13 -12 -12 -12 -12 -13 -13 -15 -20 -21 -23 -24 -23 -20 -19 -19 -20 -21 -22 -22 -22
-11 -11 -10 -10 -13 -14 -14 -14 -15 -15 -15 -15 -15 -14 -14 -14 -13 -14 -14 -13 -13 -12 -12 -12 -12 -11 -12 -13 -13 -15 -19 -20 -22 -24 -24 -21 -19 -19 -20 -20 -21 -22 -21 -21
-11 -11 -10 -10 -14 -14 -14 -14 -14 -14 -14 -15 -14 -14 -14 -14 -14 -14 -13 -12 -12 -13 -12 -11 -11 -12 -13 -13 -14 -15 -20 -21 -23 -23 -22 -20 -19 -19 -20 -20 -21 -21 -21 -20
Wind_Speed
4 4 7 12 11 4 4 4 5 4 8 3 7 4 11 20 8 9 14 14 15 18 17 17 17 17 16 14 12 12 7 4 2 5 6 7 6 7 9 8 11 14 15 16
4 6 14 3 5 7 5 4 6 6 6 1 7 8 11 7 5 11 20 17 17 17 18 20 21 24 27 26 26 22 20 15 12 8 7 3 2 5 8 8 9 12 14 15
8 7 7 6 5 5 5 6 5 8 4 2 2 7 6 5 16 20 16 17 17 18 19 20 22 25 26 29 29 28 27 24 21 17 10 5 2 3 5 6 7 10 11 12
5 10 5 3 3 5 5 6 6 5 3 4 1 5 6 4 6 9 14 16 16 17 18 20 21 24 25 26 24 24 24 23 23 21 18 16 13 10 9 6 5 9 12 13
6 2 4 6 8 8 8 3 3 0 2 1 3 2 6 7 4 5 12 16 15 15 17 19 20 21 22 22 24 24 22 22 22 20 19 18 17 15 12 8 8 8 7 7
6 1 3 6 2 4 3 3 5 4 3 2 6 7 4 3 3 7 12 16 15 14 15 17 16 16 19 20 19 19 19 20 19 18 17 16 14 13 13 14 15 17 15 11
3 5 3 3 3 2 4 5 3 3 1 6 3 3 6 5 3 14 20 20 14 12 12 12 13 14 14 14 14 13 12 12 11 11 10 12 12 12 13 14 16 17 18 18
5 3 9 5 6 7 6 8 5 7 4 5 4 5 3 4 12 24 23 20 15 12 10 8 8 8 10 11 11 10 9 10 10 10 10 10 10 11 12 13 13 13 15 17
6 5 2 2 3 6 4 3 1 4 2 3 4 1 2 3 5 13 19 18 15 12 10 4 2 5 8 8 7 7 6 6 7 8 7 9 10 12 14 15 16 17 18 18
5 2 4 2 3 3 4 6 2 2 1 5 4 5 5 8 9 7 10 17 16 14 12 8 5 5 7 5 5 5 6 6 7 7 7 9 10 12 14 15 17 19 20 22
4 2 1 3 5 8 2 3 2 3 5 5 2 6 3 8 12 14 17 20 19 17 16 12 9 7 5 3 1 2 4 6 7 9 11 13 14 15 17 17 19 20 20 22
3 4 4 6 2 4 1 6 6 4 5 3 3 8 1 7 17 18 20 17 16 16 16 14 11 10 7 5 3 1 2 5 8 12 14 16 17 18 21 23 24 24 25 25
7 2 2 6 4 1 4 3 4 5 3 5 4 6 0 4 6 15 13 14 16 19 20 16 14 13 10 7 5 3 3 6 11 14 16 18 21 23 25 27 28 28 31 32
11 5 7 11 5 4 3 4 3 4 3 3 9 5 8 7 7 9 14 17 19 23 22 18 17 15 12 10 9 8 6 8 12 16 18 19 21 23 26 28 30 33 36 40
4 6 3 3 4 3 4 8 8 8 6 8 15 9 15 5 6 13 17 14 11 19 21 21 19 18 16 13 12 12 13 14 17 19 21 22 24 26 28 29 32 36 40 44
1 2 3 3 1 5 6 13 6 10 13 10 15 19 12 22 14 5 8 9 11 15 20 21 20 20 19 16 15 16 17 17 18 20 22 23 26 29 30 33 37 42 46 48
5 6 3 6 3 3 7 9 15 12 9 8 11 13 2 5 9 13 13 11 11 12 12 14 21 21 19 19 20 21 20 20 20 22 23 26 29 30 33 37 42 45 46 48
5 5 2 3 3 2 5 3 4 9 9 5 2 3 8 10 13 13 15 12 12 13 14 14 15 18 18 21 24 22 20 19 22 23 26 28 29 32 37 41 42 45 45 47
2 4 2 4 4 7 12 6 7 7 8 7 7 3 10 13 7 10 13 11 9 7 9 13 17 19 20 20 21 21 20 21 23 25 27 29 32 37 39 41 42 44 46 47
4 1 5 3 6 10 6 2 10 6 5 10 14 12 12 13 3 6 17 9 11 15 18 21 21 20 21 21 21 21 21 23 25 27 28 31 35 37 39 40 41 43 44 46
3 1 13 10 3 8 8 7 6 5 8 9 11 15 16 7 19 15 12 14 19 18 18 21 22 22 22 21 21 22 22 24 26 27 29 33 34 36 37 39 40 41 43 44
8 8 4 2 3 8 13 6 7 6 9 9 15 18 19 23 20 20 22 21 19 20 22 22 23 24 24 23 23 25 25 26 26 28 32 33 33 34 34 37 38 40 40 41
2 7 6 10 7 4 24 19 31 23 16 17 20 19 20 21 24 25 26 23 20 19 22 23 26 27 25 24 24 26 26 27 27 30 32 32 32 33 33 35 36 38 37 37
4 5 3 4 5 7 19 27 21 19 22 25 24 23 25 27 27 25 26 24 23 22 23 23 26 27 25 25 25 26 27 27 28 32 32 32 33 34 34 33 33 34 34 36
7 7 4 4 6 13 23 28 27 31 33 30 30 31 32 31 29 26 27 24 23 23 25 26 27 28 27 26 25 26 26 27 28 31 31 31 32 32 33 32 31 31 31 32
12 9 5 7 25 18 22 29 30 31 31 32 26 26 31 28 26 25 27 25 23 23 26 28 28 27 25 25 25 25 26 27 28 30 30 30 30 31 31 32 32 23 28 31
Wind_Direction
166 109 204 210 203 184 185 189 226 269 263 211 257 264 277 275 285 147 133 115 95 81 78 75 71 69 67 67 65 63 70 98 218 241 228 230 242 236 239 261 263 265 268 269
61 214 230 185 166 219 252 255 252 268 260 241 282 279 272 359 36 163 139 120 106 94 84 80 76 73 67 66 64 59 54 51 53 56 58 39 288 259 246 234 254 264 267 269
175 218 200 181 212 185 216 198 221 231 317 266 329 300 287 53 88 105 111 117 113 103 95 86 77 71 69 65 60 58 57 55 52 47 43 34 313 277 260 256 255 283 286 278
232 258 187 174 215 163 264 207 207 221 125 228 102 273 292 159 113 83 105 104 103 101 94 85 78 74 66 58 55 52 47 48 47 45 44 44 45 42 36 10 324 284 280 277
236 224 160 220 228 163 230 162 166 201 188 50 279 322 256 117 159 134 122 121 114 107 96 86 77 70 65 58 49 43 38 37 37 30 31 32 32 31 23 3 339 326 321 300
232 291 190 200 77 154 142 83 49 49 89 302 229 179 272 195 224 140 131 127 124 117 104 94 79 69 62 55 46 39 27 26 24 19 18 18 23 24 16 19 17 14 4 344
226 216 218 172 114 36 105 80 312 329 358 231 173 132 242 306 289 157 147 141 134 125 116 96 77 67 58 42 41 37 28 29 32 28 21 19 19 17 14 10 9 2 3 4
175 275 170 181 201 186 183 161 171 222 207 241 331 243 290 9 84 126 141 141 146 151 144 122 82 55 29 25 29 34 34 38 35 32 34 30 29 27 29 29 22 7 2 1
174 264 107 173 166 145 200 181 203 100 34 31 218 72 102 104 91 131 147 156 162 166 169 150 100 354 359 12 22 34 42 48 47 38 27 18 14 10 12 13 7 2 355 350
218 212 201 188 116 60 141 163 81 13 193 248 279 260 200 197 184 188 178 179 181 186 190 201 240 301 329 354 21 43 54 51 47 39 23 15 6 1 356 350 345 343 340 335
149 137 204 105 201 177 135 204 194 162 158 187 234 256 229 175 182 196 200 198 198 202 201 213 238 256 267 263 142 94 55 36 21 10 1 355 352 350 347 344 340 333 330 327
174 149 184 193 328 327 227 194 172 170 244 232 182 256 31 164 188 194 200 206 214 214 213 224 234 240 219 212 205 157 20 360 356 353 349 344 338 335 335 336 334 330 325 323
180 170 24 349 350 24 220 200 135 102 83 223 198 257 336 170 170 205 213 224 220 226 223 220 221 218 220 224 227 257 301 336 339 339 336 333 329 326 327 328 327 325 321 318
162 170 178 230 186 150 197 177 153 143 138 213 233 291 246 214 218 234 252 256 247 237 225 228 215 216 225 229 240 254 270 306 321 325 322 319 317 317 318 319 318 317 317 316
162 202 166 201 144 183 217 235 170 199 204 211 263 228 257 261 212 268 287 277 257 230 223 219 221 223 225 236 252 262 272 287 297 306 312 308 308 311 312 312 312 312 312 311
3 207 126 286 199 206 245 256 191 220 244 243 252 268 270 285 289 240 235 236 237 222 218 226 233 234 230 244 263 263 261 267 273 284 297 301 304 307 308 309 310 310 309 308
157 135 109 256 37 62 310 237 226 237 215 221 232 243 225 259 246 235 228 225 221 212 213 228 236 235 244 252 247 240 248 256 271 286 294 299 303 305 308 308 309 310 309 308
141 110 84 210 36 270 248 249 248 232 251 200 229 225 215 238 258 237 218 222 233 234 233 241 241 246 247 245 237 239 251 268 282 289 295 299 302 306 310 311 312 311 310 310
183 134 147 167 207 311 288 233 180 180 263 184 197 230 235 240 206 231 224 236 231 245 245 251 255 257 257 245 240 250 260 273 285 291 297 302 308 312 313 314 314 314 313 312
178 280 181 128 174 211 244 211 135 109 286 206 190 216 215 162 170 242 216 222 266 270 267 270 269 256 252 243 246 254 267 283 291 297 301 307 311 313 314 315 316 316 315 314
98 36 211 220 227 284 241 216 123 118 249 169 209 235 210 189 222 263 221 267 290 280 265 265 259 255 249 250 259 268 280 288 293 296 302 309 313 315 316 316 317 317 317 317
163 166 193 103 173 267 186 124 179 202 176 233 238 228 222 231 243 246 263 272 273 261 271 265 256 249 247 254 265 274 282 288 292 299 308 313 315 315 316 316 318 319 321 321
245 193 182 188 204 233 185 210 218 234 245 242 239 235 228 241 255 264 265 266 267 269 269 261 254 245 248 257 270 279 284 289 294 303 310 314 315 316 318 319 322 322 326 321
252 162 212 97 221 225 204 218 230 237 253 266 255 251 253 256 259 266 265 259 268 275 270 258 255 245 254 266 275 279 283 287 296 305 310 313 316 316 318 321 327 326 328 322
205 155 167 261 282 256 239 243 253 268 273 264 259 260 261 262 267 264 265 262 273 272 267 259 251 251 260 268 273 278 282 289 298 305 309 313 313 315 320 323 329 330 330 322
201 220 212 241 252 243 259 269 270 271 269 271 267 268 268 262 264 265 267 271 274 274 266 256 252 257 265 270 275 279 282 291 301 305 308 311 312 317 322 323 324 335 329 327
Height
1536 1543 1546 1537 1536 1535 1536 1541 1543 1537 1530 1532 1530 1529 1522 1516 1520 1521 1523 1525 1526 1525 1525 1523 1521 1518 1515 1512 1510 1508 1508 1507 1509 1510 1512 1513 1516 1517 1518 1519 1519 1518 1519 1519
1541 1543 1529 1529 1534 1537 1539 1541 1542 1536 1528 1529 1529 1527 1517 1518 1518 1518 1522 1525 1528 1529 1528 1526 1525 1521 1517 1515 1512 1512 1512 1512 1511 1511 1511 1513 1514 1515 1516 1517 1517 1515 1516 1517
1535 1528 1524 1529 1531 1536 1537 1539 1537 1536 1529 1526 1527 1530 1519 1523 1522 1523 1527 1527 1527 1527 1527 1527 1527 1524 1522 1519 1517 1516 1515 1515 1514 1514 1514 1514 1514 1515 1516 1516 1518 1517 1515 1515
1531 1523 1525 1529 1530 1532 1537 1527 1529 1531 1535 1542 1528 1545 1524 1517 1525 1528 1532 1533 1534 1532 1532 1530 1528 1525 1524 1525 1523 1520 1521 1519 1519 1519 1517 1516 1515 1515 1515 1516 1516 1515 1515 1514
1525 1520 1522 1527 1525 1527 1531 1525 1526 1527 1534 1536 1534 1543 1525 1521 1526 1530 1531 1533 1535 1535 1532 1531 1531 1529 1528 1526 1526 1526 1525 1522 1521 1522 1521 1519 1518 1519 1517 1517 1516 1514 1512 1511
1523 1520 1520 1519 1520 1522 1525 1528 1535 1540 1543 1552 1533 1536 1527 1521 1519 1531 1533 1533 1536 1537 1533 1532 1534 1533 1533 1531 1528 1528 1530 1525 1523 1523 1524 1522 1521 1519 1519 1517 1517 1516 1514 1511
1519 1518 1516 1517 1522 1523 1524 1535 1551 1555 1560 1545 1528 1536 1519 1521 1517 1517 1524 1529 1534 1537 1536 1535 1534 1535 1533 1533 1530 1527 1530 1526 1524 1523 1523 1524 1522 1519 1518 1516 1516 1517 1515 1513
1524 1523 1513 1512 1515 1519 1525 1527 1543 1549 1555 1540 1534 1527 1516 1528 1522 1522 1526 1527 1530 1533 1534 1533 1533 1534 1532 1532 1530 1529 1529 1527 1526 1524 1524 1526 1523 1521 1518 1515 1513 1514 1514 1513
1522 1519 1510 1508 1509 1513 1521 1529 1525 1536 1571 1557 1527 1524 1529 1529 1528 1527 1526 1525 1526 1529 1530 1532 1532 1532 1532 1530 1531 1528 1528 1529 1527 1526 1528 1527 1525 1523 1519 1515 1514 1513 1513 1512
1507 1512 1508 1508 1508 1512 1514 1518 1533 1541 1555 1561 1529 1520 1513 1526 1527 1526 1525 1524 1525 1525 1528 1528 1528 1529 1529 1529 1529 1528 1528 1528 1527 1527 1527 1525 1523 1521 1519 1517 1515 1513 1512 1511
1504 1507 1514 1511 1512 1512 1517 1520 1520 1524 1534 1542 1551 1519 1504 1511 1517 1520 1519 1519 1520 1521 1523 1524 1525 1526 1527 1527 1528 1527 1526 1526 1526 1525 1524 1523 1521 1520 1518 1515 1513 1512 1510 1509
1500 1508 1524 1512 1510 1509 1507 1510 1512 1529 1528 1529 1525 1509 1505 1507 1511 1515 1516 1517 1519 1520 1521 1522 1523 1524 1524 1524 1524 1524 1524 1524 1523 1522 1521 1520 1519 1517 1515 1512 1510 1508 1508 1504
1499 1512 1536 1523 1514 1511 1512 1510 1511 1517 1527 1532 1527 1514 1508 1508 1512 1514 1516 1516 1516 1516 1517 1518 1521 1522 1521 1522 1522 1522 1522 1521 1520 1520 1519 1517 1515 1512 1510 1508 1506 1504 1501 1499
1490 1501 1503 1496 1505 1506 1513 1510 1513 1515 1534 1529 1512 1510 1504 1509 1510 1511 1512 1512 1512 1511 1513 1516 1517 1518 1518 1519 1519 1519 1518 1518 1518 1518 1516 1515 1512 1509 1507 1504 1501 1498 1496 1492
1493 1496 1504 1504 1502 1505 1506 1507 1511 1513 1512 1517 1502 1511 1497 1502 1506 1504 1503 1504 1505 1507 1509 1511 1512 1513 1515 1515 1516 1516 1516 1515 1515 1514 1512 1510 1508 1505 1503 1500 1497 1494 1490 1485
1493 1506 1505 1514 1507 1507 1508 1503 1509 1507 1504 1507 1503 1500 1496 1495 1496 1498 1500 1501 1502 1503 1505 1508 1509 1510 1511 1511 1511 1510 1510 1510 1509 1508 1506 1505 1502 1500 1497 1493 1490 1485 1480 1475
1495 1505 1517 1516 1514 1515 1525 1501 1498 1492 1494 1496 1501 1492 1494 1494 1495 1497 1499 1499 1501 1501 1501 1503 1505 1506 1505 1505 1505 1505 1505 1504 1504 1502 1500 1498 1495 1492 1489 1485 1480 1474 1468 1462
1496 1502 1513 1530 1535 1542 1488 1490 1490 1490 1488 1492 1493 1493 1491 1491 1492 1493 1495 1496 1498 1499 1498 1499 1501 1501 1500 1499 1498 1499 1499 1498 1496 1494 1493 1490 1487 1484 1479 1474 1469 1463 1457 1451
1491 1497 1523 1524 1542 1508 1483 1483 1486 1486 1487 1484 1489 1487 1489 1490 1492 1491 1493 1494 1495 1494 1495 1496 1496 1495 1493 1493 1493 1493 1492 1491 1490 1488 1485 1481 1478 1473 1469 1464 1458 1452 1445 1439
1492 1492 1497 1540 1533 1521 1483 1479 1478 1480 1496 1480 1481 1483 1485 1489 1498 1488 1488 1490 1491 1491 1490 1490 1489 1488 1487 1487 1486 1486 1485 1483 1482 1479 1476 1473 1470 1465 1459 1454 1448 1442 1435 1428
1507 1506 1492 1497 1525 1507 1479 1477 1479 1504 1481 1473 1478 1478 1480 1483 1479 1480 1483 1484 1485 1484 1484 1483 1482 1481 1480 1479 1479 1478 1477 1475 1473 1471 1469 1465 1461 1456 1450 1444 1439 1432 1425 1417
1487 1498 1505 1515 1512 1506 1469 1478 1482 1469 1467 1470 1472 1471 1472 1472 1474 1476 1477 1477 1478 1478 1477 1476 1475 1474 1473 1472 1472 1471 1469 1467 1465 1463 1460 1456 1452 1448 1442 1436 1431 1423 1416 1407
1478 1469 1483 1481 1479 1462 1461 1459 1460 1461 1463 1465 1465 1466 1467 1467 1468 1469 1469 1470 1470 1470 1469 1468 1467 1466 1466 1465 1464 1463 1461 1459 1457 1454 1450 1447 1443 1439 1434 1428 1422 1415 1407 1400
1464 1461 1466 1469 1460 1459 1460 1458 1457 1457 1457 1458 1459 1460 1461 1461 1461 1461 1461 1461 1461 1461 1460 1460 1459 1459 1458 1457 1456 1455 1453 1451 1449 1446 1442 1438 1434 1430 1426 1420 1415 1407 1400 1393
1457 1456 1458 1459 1455 1455 1454 1451 1452 1451 1451 1451 1453 1453 1452 1452 1452 1452 1452 1452 1453 1452 1451 1451 1451 1451 1450 1449 1449 1447 1445 1443 1441 1437 1434 1430 1427 1422 1418 1413 1409 1401 1396 1389
1444 1442 1451 1451 1444 1446 1445 1445 1445 1443 1443 1443 1444 1444 1444 1443 1443 1444 1443 1444 1444 1443 1443 1443 1443 1443 1443 1442 1441 1439 1437 1435 1432 1429 1426 1423 1419 1415 1410 1405 1400 1400 1391 1385